Showing default

IRIDIUM 139, 42963

Orbit data source: Space-Track

IRIDIUM 139, 42963 is a payload satellite owned by Iridium (US) in LEO that was launched on Mon, 09 Oct 2017 UTC via an FALCON 9 launch vehicle from the Air Force Western Test Range (AFWTR). Payload-class satellites include a variety of spacecraft equipped with specific instruments for various scientific and technological missions. These include communications satellites like Starlink; space stations such as the ISS; scientific satellites like the Hubble; Earth observation satellites from companies like Planet Labs, Umbra, and HawkEye 360; GPS; miniature CubeSats for education and research; and military/defense satellites.

Loading next visibility...
Identifier
42963, 2017-061J
Orbit
LEO
Country
Flag of USUS
Related business
Manufacturer
OATK SSG Gilbert
Mission
Operational Commercial Communications
Bus & Motor
ELITEBUS, Unknown motor
Mass
860 kg wet, 700 kg dry
Launch date (UTC)
2017-10-09 (8 years ago)
Launch vehicle
FALCON 9
Launch site
Air Force Western Test Range (AFWTR)
Object type
Payload
Rocket body
Debris
Shape & HBR
Trap Box + 2 Pan, 4.7 m
Radar Cross Section
14.423 m², Large (>1 m²)

Expand to show TLE details & history
Last TLE update: 13 hours ago

TLE from 13 hours ago
0 IRIDIUM 139
1 42963U 17061J   25258.72077231  .00000113  00000-0  33357-4 0  9990
2 42963  86.4002 140.0727 0002328  87.3453 272.8009 14.34218035415506
Epoch: 2025-09-15T17:17Z
TLE epoch observation values (Epoch: 2025-09-15T17:17:54.727Z)
Latitude
-0.00006°
Longitude
-114.3267°
Altitude
780.636 km
Speed
7.464 km/s
True Right ascension
09h 20m 17s
True Declination
0° 00' 00"
Sunlit
Object was in daylight at epoch
Visualization orbit readout
Latitude
Unknown
Longitude
Unknown
Altitude
Unknown
Speed
Unknown
Apparent Right ascension
Unknown
Apparent Declination
Unknown
Sunlit
N/A
Visualization observer readout
Local Sidereal Time
23:10:40
Azimuth
Unknown
Elevation
Unknown
Doppler factor
Unknown
Orbital elements
Apogee altitude
776.296 km
Perigee altitude
772.965 km
Semi-major axis
7,152.768 km
Eccentricity
0.00023
Inclination
86.4002°
RAAN
140.0727°
Arg. of periapsis
87.3453°
True anomaly
272.77425°
Mean anomaly
272.8009°
Eccentric anomaly
272.78758°
Mean motion
3.58783 °/min
Orbital period
100.34 mins
BSTAR
0.000033357
Loading maneuver chart data...
Computing Atmospheric mass density...
Loading historical data...
Loading historical data...
Loading historical data...
Loading historical data...
Loading historical data...
Loading historical data...
Loading historical data...

Documentation

Showing up to 5 results
|